Regional Weather Roundup
Issued by NWS

Home | Current Version | Previous Version | Graphics & Text | Print | Product List | Glossary On
Versions: 1 2 3 4 5 6 7 8 9 10 11 12 13 14 15 16 17 18 19 20 21 22 23 24 25 26 27 28 29 30 31 32 33 34 35 36 37 38 39 40 41 42 43 44 45 46 47 48 49 50
000
ASUS45 KSLC 042210
RWRUT

UTAH REGIONAL WEATHER ROUNDUP
NATIONAL WEATHER SERVICE SALT LAKE CITY UT
400 PM MDT TUE AUG 04 2015

UTZ001>011-023>025-042300-

NORTHERN UTAH

CITY           SKY/WX    TMP DP  RH WIND       PRES   REMARKS
BRIGHAM CITY   SUNNY     85  41  21 S6        30.05F
HILL AFB       MOSUNNY   85  47  26 SE1       30.08F
LOGAN          SUNNY     83  49  30 SW5       30.06F
OGDEN          SUNNY     86  48  26 VRB3      30.05F
PROVO AIRPORT  MOSUNNY   88  50  27 CALM      30.06F
SALT LAKE CITY MOSUNNY   89  49  25 VRB3      30.02F
VERNAL         MOSUNNY   84  43  23 VRB5      30.12F
WENDOVER       SUNNY     88  48  25 S10       30.03F
HEBER CITY     MOSUNNY   88  37  16 SW12      30.13F
WEST JORDAN    SUNNY     88  48  25 E6        30.07F

$$

UTZ012>022-026-027-042300-

SOUTHERN/CENTRAL UTAH

CITY           SKY/WX    TMP DP  RH WIND       PRES   REMARKS
BLANDING       MOSUNNY   87  44  22 NE9       30.26S
CEDAR CITY     SUNNY     91  27  10 SW16G26   30.12F
DELTA          SUNNY     90  32  12 CALM      30.05F
HANKSVILLE     SUNNY     91  43  18 E8G16     30.06F
MILFORD        SUNNY     95  35  12 SW18G28   30.05F HX  90
MOAB/CYNLANDS  SUNNY     90  47  22 W5        30.06F
PRICE          MOSUNNY   86  44  23 VRB6      30.17F
ST GEORGE      CLEAR    100  36  10 NW5       29.93F HX  95
KANAB          SUNNY     93  32  11 S7        30.14F

$$

REGIONAL REPORTS     COLORADO/ARIZONA

CITY           SKY/WX    TMP DP  RH WIND       PRES   REMARKS
CRAIG, CO      NOT AVBL
GRAND JUNCTION MOSUNNY   90  41  18 W9G17     30.08F
RIFLE          MOSUNNY   86  39  19 W8        30.13F
MONTROSE       MOSUNNY   87  44  22 MISG      30.18F
CORTEZ         SUNNY     88  37  16 W13G26    30.20S
PAGE, AZ       SUNNY     98  38  12 N13G21    30.03F HX  93
GRAND CANYON   SUNNY     86  28  12 MISG      30.26F
KINGMAN        SUNNY     99  31   9 SW21G26   30.02F HX  93
FLAGSTAFF      SUNNY     82  37  20 W9G22     30.31F

$$

REGIONAL REPORTS    NEVADA/IDAHO/WYOMING

CITY           SKY/WX    TMP DP  RH WIND       PRES   REMARKS
LAS VEGAS, NV  NOT AVBL
ELY            MOSUNNY   89  18   7 S17G28    30.12F
ELKO           MOSUNNY   93  29  10 VRB3      29.99F
POCATELLO, ID  PTSUNNY   89  38  16 CALM      30.01F
BURLEY         MOSUNNY   86  50  28 N5        29.96F
EVANSTON, WY   MOSUNNY   80  40  23 SW15G24   30.25F
ROCK SPRINGS   MOSUNNY   79  35  20 W24G35    30.21F
KEMMERER       SUNNY     77  41  27 W15G24    30.26F

$$


USA.gov is the U.S. government's official web portal to all federal, state and local government web resources and services.